NOAA 16 DEB, 42372

Orbit data source: Space-Track

NOAA 16 DEB, 42372 is space debris in SSO originally from a launch on Thu, 21 Sep 2000 UTC launched from the Air Force Western Test Range (AFWTR). Debris objects in space refer to the collection of defunct objects orbiting the Earth. Examples of debris include non-operational satellites, rocket bodies, and fragments generated from explosions, collisions, or faulty payload assembly.

Loading next visibility...
Identifier
42372, 2000-055RQ
Orbit
SSO
Country
Flag of USUS
Related business
Manufacturer
Unknown
Mission
Spacecraft
Bus & Motor
Unknown
Mass
Unknown
Launch date (UTC)
2000-09-21 (25 years ago)
Launch vehicle
Unknown
Launch site
Air Force Western Test Range (AFWTR)
Object type
Payload
Rocket body
Debris
Shape & HBR
Unknown shape, 0.1 m
Radar Cross Section
Small (<0.1 m²)

Expand to show TLE details & history
Last TLE update: 2 days ago

TLE from 2 days ago
0 NOAA 16 DEB
1 42372U 00055RQ  25311.57970899  .00008739  00000-0  32744-2 0  9993
2 42372  98.8636  65.1470 0010687 254.1361 105.8644 14.31903988495638
Epoch: 2025-11-07T13:54Z
TLE epoch observation values (Epoch: 2025-11-07T13:54:46.856Z)
Latitude
-0.00002°
Longitude
169.43013°
Altitude
790.4 km
Speed
7.457 km/s
True Right ascension
04h 20m 35s
True Declination
0° 00' 00"
Sunlit
Object was in full shadow at epoch
Visualization orbit readout
Latitude
Unknown
Longitude
Unknown
Altitude
Unknown
Speed
Unknown
Apparent Right ascension
Unknown
Apparent Declination
Unknown
Sunlit
N/A
Visualization observer readout
Local Sidereal Time
20:11:48
Azimuth
Unknown
Elevation
Unknown
Doppler factor
Unknown
Orbital elements
Apogee altitude
790.176 km
Perigee altitude
774.871 km
Semi-major axis
7,160.661 km
Eccentricity
0.00107
Inclination
98.8636°
RAAN
65.147°
Arg. of periapsis
254.1361°
True anomaly
105.98216°
Mean anomaly
105.8644°
Eccentric anomaly
105.92328°
Mean motion
3.5819 °/min
Orbital period
100.51 mins
BSTAR
0.0032744
Loading maneuver chart data...
Computing Atmospheric mass density...
Loading historical data...
Loading historical data...
Loading historical data...
Loading historical data...
Loading historical data...
Loading historical data...
Loading historical data...

Documentation

Showing up to 5 results
|